Regional Weather Roundup
Issued by NWS Glasgow, MT

Home | Current Version | Previous Version | Text Only | Print | Product List | Glossary On
Versions: 1 2 3 4 5 6 7 8 9 10 11 12 13 14 15 16 17 18 19 20 21 22 23 24 25 26 27 28 29 30 31 32 33 34 35 36 37 38 39 40 41 42 43 44 45 46 47 48 49 50
000
ASUS45 KGGW 211215
RWRGGW
HOURLY WEATHER ROUNDUP FOR NORTHEAST MONTANA
NATIONAL WEATHER SERVICE GLASGOW MONTANA
600 AM MDT THU AUG 21 2014

NOTE: "FAIR" INDICATES FEW OR NO CLOUDS BELOW 12,000 FEET WITH NO
SIGNIFICANT WEATHER AND/OR OBSTRUCTIONS TO VISISBILITY.

NORTHEAST MONTANA


CITY           SKY/WX    TMP DP  RH WIND       PRES   REMARKS
GLASGOW        MOCLDY    63  58  83 N9        29.90R
6HR MIN TEMP:  62; 6HR MAX TEMP:  66;

PLENTYWOOD       N/A     57  55  93 N7          N/A
WOLF POINT     PTCLDY    62  56  80 CALM      29.90R
JORDAN           N/A     60  58  92 W6        29.94R
WINNETT          N/A     59  53  80 NW7         N/A
SIDNEY         CLEAR     61  59  94 NW10      29.89R
GLENDIVE       CLEAR     59  57  94 W8        29.91R
MALTA            N/A     59  58  96 W5          N/A

FORT PECK REPORTS


CITY           SKY/WX    TMP DP  RH WIND       PRES   REMARKS
FORT PECK        N/A     61  57  87 N10         N/A
THE PINES        N/A     63  57  81 N3          N/A

SOUTHEAST MONTANA


CITY           SKY/WX    TMP DP  RH WIND       PRES   REMARKS
BILLINGS       CLOUDY    59  55  87 NW7       30.00R
MILES CITY     CLOUDY    62  53  72 N5        29.93R
BAKER          CLEAR     54  53  97 NW5       29.92R
LIVINGSTON     CLOUDY    58  50  75 W10       30.04R

CENTRAL MONTANA


CITY           SKY/WX    TMP DP  RH WIND       PRES   REMARKS
HAVRE          CLOUDY    58  57  97 SW3       29.98R
LEWISTOWN      CLOUDY    56  53  90 W6        30.05R
GREAT FALLS    CLOUDY    55  53  93 NW5       30.04R
CUT BANK       CLOUDY    52  48  86 N10       30.08R
HELENA         CLOUDY    56  50  80 CALM      30.04R
BUTTE          CLOUDY    50  47  89 S3        30.08F
BOZEMAN        CLOUDY    55  52  89 SE7       30.05R

WESTERN MONTANA


CITY           SKY/WX    TMP DP  RH WIND       PRES   REMARKS
MISSOULA       PTCLDY    54  49  83 CALM      30.00S
KALISPELL      NOT AVBL

NORTH DAKOTA


CITY           SKY/WX    TMP DP  RH WIND       PRES   REMARKS
WILLISTON      PTCLDY    55  54  96 E3        29.86R FOG
DICKINSON      CLEAR     56  54  93 W6        29.86R
MINOT          PTCLDY    63  61  93 NW7       29.79S
BISMARCK       CLOUDY    65  64  97 NW5       29.80R

SOUTHERN SASKATCHEWAN


CITY           SKY/WX    TMP DP  RH WIND       PRES   REMARKS
REGINA         CLOUDY    61  59  94 N12G23    29.90R
MOOSE JAW      CLOUDY   N/A N/A N/A N12         N/A
ESTEVAN        PTCLDY    59  59 100 NW9       29.85R FOG
SWIFT CURRENT  CLOUDY    57  57 100 N6        29.97R FOG



USA.gov is the U.S. government's official web portal to all federal, state and local government web resources and services.